| time (UTC) | temp F | wind direction | speed MPH | gust MPH | rain 1hr in | rain 24hr in | rain mn in | humidity % | barometer mb |
| 20260504044444 | 53 | 246 | 13.0 | 18.0 | 0.00 | 0.00 | 0.00 | 48 | 1001.4 |
| 20260504043543 | 53 | 251 | 10.0 | 18.0 | 0.00 | 0.00 | 0.00 | 46 | 1001.5 |
| 20260504042643 | 53 | 265 | 9.0 | 16.0 | 0.00 | 0.00 | 0.00 | 44 | 1001.4 |
| 20260504041743 | 53 | 253 | 10.0 | 16.0 | 0.00 | 0.00 | 0.00 | 44 | 1001.4 |
| 20260504040843 | 53 | 248 | 9.0 | 17.0 | 0.00 | 0.00 | 0.00 | 43 | 1001.5 |
| 20260504035943 | 54 | 242 | 9.0 | 17.0 | 0.00 | 0.00 | 0.00 | 42 | 1001.4 |
| 20260504035044 | 55 | 273 | 9.0 | 13.0 | 0.00 | 0.00 | 0.00 | 37 | 1001.4 |
| 20260504033243 | 55 | 291 | 8.0 | 13.0 | 0.00 | 0.00 | 0.00 | 38 | 1001.3 |
| 20260504032343 | 55 | 286 | 9.0 | 14.0 | 0.00 | 0.00 | 0.00 | 39 | 1001.3 |
| 20260504031443 | 54 | 290 | 8.0 | 13.0 | 0.00 | 0.00 | 0.00 | 39 | 1001.4 |
| 20260504030543 | 54 | 266 | 7.0 | 13.0 | 0.00 | 0.00 | 0.00 | 38 | 1001.4 |
| 20260504025643 | 55 | 287 | 8.0 | 13.0 | 0.00 | 0.00 | 0.00 | 38 | 1001.3 |
| 20260504023843 | 56 | 281 | 15.0 | 19.0 | 0.00 | 0.00 | 0.00 | 36 | 1001.3 |
| 20260504022943 | 56 | 284 | 15.0 | 18.0 | 0.00 | 0.00 | 0.00 | 35 | 1001.3 |
| 20260504022043 | 56 | 280 | 13.0 | 16.0 | 0.00 | 0.00 | 0.00 | 35 | 1001.3 |
| 20260504021143 | 56 | 281 | 13.0 | 15.0 | 0.00 | 0.00 | 0.00 | 36 | 1001.3 |
| 20260504020243 | 56 | 279 | 13.0 | 15.0 | 0.00 | 0.00 | 0.00 | 36 | 1001.3 |
| 20260504015343 | 55 | 279 | 13.0 | 15.0 | 0.00 | 0.00 | 0.00 | 36 | 1001.3 |
| 20260504014443 | 55 | 278 | 10.0 | 14.0 | 0.00 | 0.00 | 0.00 | 37 | 1001.3 |
| 20260504013543 | 55 | 277 | 10.0 | 13.0 | 0.00 | 0.00 | 0.00 | 37 | 1001.2 |
| 20260504012643 | 55 | 279 | 11.0 | 13.0 | 0.00 | 0.00 | 0.00 | 37 | 1001.0 |
| 20260504011743 | 55 | 268 | 7.0 | 12.0 | 0.00 | 0.00 | 0.00 | 38 | 1001.0 |
| 20260504010843 | 55 | 276 | 9.0 | 13.0 | 0.00 | 0.00 | 0.00 | 37 | 1001.0 |
| 20260504005943 | 55 | 275 | 10.0 | 13.0 | 0.00 | 0.00 | 0.00 | 37 | 1000.8 |
| 20260504005042 | 55 | 276 | 9.0 | 12.0 | 0.00 | 0.00 | 0.00 | 36 | 1000.7 |
| 20260504004143 | 55 | 279 | 11.0 | 13.0 | 0.00 | 0.00 | 0.00 | 36 | 1000.6 |
| 20260504003242 | 55 | 278 | 11.0 | 13.0 | 0.00 | 0.00 | 0.00 | 36 | 1000.5 |
| 20260504002343 | 55 | 279 | 12.0 | 15.0 | 0.00 | 0.00 | 0.00 | 36 | 1000.3 |
| 20260504001443 | 55 | 280 | 12.0 | 15.0 | 0.00 | 0.00 | 0.00 | 36 | 1000.2 |
| 20260504000543 | 55 | 279 | 10.0 | 14.0 | 0.00 | 0.00 | 0.00 | 37 | 1000.0 |
| 20260503234742 | 54 | 288 | 14.0 | 19.0 | 0.00 | 0.00 | 0.00 | 42 | 999.8 |
| 20260503233842 | 54 | 289 | 14.0 | 20.0 | 0.00 | 0.00 | 0.00 | 42 | 999.7 |
| 20260503232942 | 54 | 291 | 14.0 | 20.0 | 0.00 | 0.00 | 0.00 | 43 | 999.7 |
| 20260503232042 | 54 | 289 | 14.0 | 22.0 | 0.00 | 0.00 | 0.00 | 42 | 999.5 |
| 20260503231142 | 55 | 292 | 17.0 | 25.0 | 0.00 | 0.00 | 0.00 | 42 | 999.4 |
| 20260503230242 | 55 | 296 | 17.0 | 25.0 | 0.00 | 0.00 | 0.00 | 41 | 999.4 |
| 20260503224442 | 54 | 297 | 15.0 | 24.0 | 0.00 | 0.00 | 0.00 | 45 | 999.4 |
| 20260503222642 | 55 | 299 | 13.0 | 23.0 | 0.00 | 0.00 | 0.00 | 46 | 999.3 |
| 20260503221742 | 55 | 301 | 15.0 | 23.0 | 0.00 | 0.00 | 0.00 | 40 | 999.2 |
| 20260503220842 | 54 | 300 | 16.0 | 25.0 | 0.00 | 0.00 | 0.00 | 40 | 999.3 |
| 20260503215042 | 54 | 302 | 19.0 | 29.0 | 0.00 | 0.00 | 0.00 | 40 | 999.2 |
| 20260503214142 | 54 | 307 | 19.0 | 28.0 | 0.00 | 0.00 | 0.00 | 40 | 999.2 |
| 20260503213242 | 54 | 304 | 15.0 | 22.0 | 0.00 | 0.00 | 0.00 | 43 | 999.1 |
| 20260503212342 | 54 | 304 | 15.0 | 24.0 | 0.00 | 0.00 | 0.00 | 50 | 999.1 |
| 20260503211442 | 54 | 301 | 14.0 | 23.0 | 0.00 | 0.00 | 0.00 | 48 | 999.1 |
| 20260503210542 | 53 | 299 | 22.0 | 27.0 | 0.00 | 0.00 | 0.00 | 47 | 999.0 |
| 20260503203842 | 53 | 301 | 16.0 | 27.0 | 0.00 | 0.00 | 0.00 | 41 | 999.0 |
| 20260503202042 | 52 | 306 | 18.0 | 28.0 | 0.00 | 0.00 | 0.00 | 42 | 999.0 |
| 20260503201142 | 52 | 304 | 21.0 | 29.0 | 0.00 | 0.00 | 0.00 | 43 | 999.1 |
| 20260503200242 | 52 | 301 | 19.0 | 30.0 | 0.00 | 0.00 | 0.00 | 45 | 999.2 |
| 20260503195342 | 51 | 299 | 21.0 | 33.0 | 0.00 | 0.00 | 0.00 | 46 | 999.2 |
| 20260503194442 | 51 | 294 | 25.0 | 34.0 | 0.00 | 0.00 | 0.00 | 47 | 999.1 |
| 20260503193542 | 51 | 293 | 21.0 | 33.0 | 0.00 | 0.00 | 0.00 | 48 | 999.2 |
| 20260503192642 | 51 | 305 | 23.0 | 35.0 | 0.00 | 0.00 | 0.00 | 51 | 999.2 |
| 20260503191742 | 50 | 292 | 23.0 | 35.0 | 0.00 | 0.00 | 0.00 | 46 | 999.2 |
| 20260503190842 | 50 | 292 | 26.0 | 35.0 | 0.00 | 0.00 | 0.00 | 49 | 999.3 |
| 20260503185942 | 51 | 297 | 22.0 | 38.0 | 0.00 | 0.00 | 0.00 | 49 | 999.3 |
| 20260503185042 | 50 | 291 | 27.0 | 39.0 | 0.00 | 0.00 | 0.00 | 50 | 999.4 |
| 20260503184142 | 50 | 294 | 26.0 | 43.0 | 0.00 | 0.00 | 0.00 | 48 | 999.0 |
| 20260503183241 | 51 | 297 | 27.0 | 41.0 | 0.00 | 0.00 | 0.00 | 46 | 999.0 |
| 20260503182341 | 51 | 307 | 28.0 | 41.0 | 0.00 | 0.00 | 0.00 | 45 | 999.2 |
| 20260503181441 | 51 | 308 | 18.0 | 41.0 | 0.00 | 0.00 | 0.00 | 44 | 999.4 |
| 20260503180541 | 50 | 291 | 14.0 | 24.0 | 0.00 | 0.00 | 0.00 | 50 | 999.3 |
| 20260503175641 | 50 | 299 | 15.0 | 23.0 | 0.00 | 0.00 | 0.00 | 47 | 999.3 |
| 20260503174741 | 49 | 299 | 15.0 | 22.0 | 0.00 | 0.00 | 0.00 | 49 | 999.4 |
| 20260503173841 | 49 | 306 | 18.0 | 27.0 | 0.00 | 0.00 | 0.00 | 48 | 999.5 |
| 20260503172941 | 49 | 306 | 19.0 | 31.0 | 0.00 | 0.00 | 0.00 | 45 | 999.5 |
| 20260503172041 | 49 | 308 | 21.0 | 30.0 | 0.00 | 0.00 | 0.00 | 49 | 999.5 |
| 20260503171141 | 49 | 302 | 21.0 | 30.0 | 0.00 | 0.00 | 0.00 | 48 | 999.6 |
| 20260503170241 | 49 | 305 | 19.0 | 30.0 | 0.00 | 0.00 | 0.00 | 52 | 999.6 |
| 20260503150541 | 47 | 333 | 28.0 | 37.0 | 0.00 | 0.00 | 0.00 | 56 | 999.7 |
| 20260503130840 | 43 | 310 | 22.0 | 33.0 | 0.00 | 0.00 | 0.00 | 66 | 999.5 |
| 20260503110240 | 42 | 354 | 26.0 | 36.0 | 0.00 | 0.01 | 0.00 | 69 | 999.4 |
| 20260503081139 | 44 | 6 | 24.0 | 33.0 | 0.00 | 0.01 | 0.00 | 58 | 999.2 |
| 20260503080239 | 44 | 9 | 22.0 | 30.0 | 0.00 | 0.01 | 0.00 | 57 | 999.1 |
| 20260503072639 | 45 | 25 | 16.0 | 21.0 | 0.00 | 0.01 | 0.00 | 60 | 999.0 |
| 20260503071739 | 45 | 31 | 19.0 | 27.0 | 0.00 | 0.01 | 0.00 | 60 | 999.1 |
| 20260503054739 | 47 | 26 | 18.0 | 24.0 | 0.00 | 0.01 | 0.00 | 57 | 999.3 |
| 20260503053839 | 47 | 30 | 15.0 | 21.0 | 0.00 | 0.01 | 0.00 | 60 | 999.6 |
| 20260503052039 | 48 | 34 | 21.0 | 32.0 | 0.00 | 0.01 | 0.00 | 54 | 999.5 |
| 20260503051139 | 48 | 33 | 17.0 | 27.0 | 0.00 | 0.01 | 0.00 | 57 | 999.7 |
| 20260503045339 | 48 | 36 | 15.0 | 23.0 | 0.00 | 0.01 | 0.00 | 58 | 999.9 |